Time,TemperatureF,DewpointF,PressureIn,WindDirection,WindDirectionDegrees,WindSpeedMPH,WindSpeedGustMPH,Humidity,HourlyPrecipIn,Conditions,Clouds,dailyrainin,SoftwareType,DateUTC
2013-08-21 00:00:00,69.9,57.6,30.18,SW,217,0.0,0.0,65,0.00,,,0.00,Wunderground v.1.15,2013-08-21 04:00:00,
2013-08-21 00:05:00,70.0,57.7,30.18,SW,217,0.0,0.0,65,0.00,,,0.00,Wunderground v.1.15,2013-08-21 04:05:00,
2013-08-21 00:15:00,70.1,58.2,30.18,SW,217,0.0,0.0,66,0.00,,,0.00,Wunderground v.1.15,2013-08-21 04:15:00,
2013-08-21 00:20:00,70.0,58.1,30.18,SW,217,0.0,0.0,66,0.00,,,0.00,Wunderground v.1.15,2013-08-21 04:20:00,
2013-08-21 00:25:00,69.9,58.0,30.18,SW,217,0.0,0.0,66,0.00,,,0.00,Wunderground v.1.15,2013-08-21 04:25:00,
2013-08-21 00:30:00,69.9,58.0,30.18,SW,217,0.0,0.0,66,0.00,,,0.00,Wunderground v.1.15,2013-08-21 04:30:00,
2013-08-21 00:35:00,69.9,58.0,30.18,SW,217,0.0,0.0,66,0.00,,,0.00,Wunderground v.1.15,2013-08-21 04:35:00,
2013-08-21 00:45:00,70.2,57.9,30.18,SW,219,0.0,2.0,65,0.00,,,0.00,Wunderground v.1.15,2013-08-21 04:45:00,
2013-08-21 00:50:00,70.7,57.9,30.18,SW,225,1.0,2.0,64,0.00,,,0.00,Wunderground v.1.15,2013-08-21 04:50:00,
2013-08-21 00:55:00,71.2,58.0,30.18,WSW,256,1.0,2.0,63,0.00,,,0.00,Wunderground v.1.15,2013-08-21 04:55:00,
2013-08-21 01:00:00,71.4,58.1,30.18,WSW,242,1.0,1.0,63,0.00,,,0.00,Wunderground v.1.15,2013-08-21 05:00:00,
2013-08-21 01:05:00,71.5,58.2,30.18,WSW,254,1.0,1.0,63,0.00,,,0.00,Wunderground v.1.15,2013-08-21 05:05:00,
2013-08-21 01:10:00,71.6,58.3,30.18,WSW,238,1.0,1.0,63,0.00,,,0.00,Wunderground v.1.15,2013-08-21 05:10:00,
2013-08-21 01:15:00,71.7,58.4,30.18,WSW,257,2.0,2.0,63,0.00,,,0.00,Wunderground v.1.15,2013-08-21 05:15:00,
2013-08-21 01:20:00,71.7,58.4,30.18,SW,234,2.0,2.0,63,0.00,,,0.00,Wunderground v.1.15,2013-08-21 05:20:00,
2013-08-21 01:30:00,71.7,58.4,30.18,WSW,240,2.0,2.0,63,0.00,,,0.00,Wunderground v.1.15,2013-08-21 05:30:00,
2013-08-21 01:40:00,71.5,58.2,30.19,SW,219,1.0,4.0,63,0.00,,,0.00,Wunderground v.1.15,2013-08-21 05:40:00,
2013-08-21 01:45:00,71.4,58.6,30.19,WSW,238,1.0,4.0,64,0.00,,,0.00,Wunderground v.1.15,2013-08-21 05:45:00,
2013-08-21 01:50:00,71.4,58.6,30.19,WSW,248,1.0,1.0,64,0.00,,,0.00,Wunderground v.1.15,2013-08-21 05:50:00,
2013-08-21 01:55:00,71.4,58.6,30.19,SW,214,2.0,2.0,64,0.00,,,0.00,Wunderground v.1.15,2013-08-21 05:55:00,
2013-08-21 02:00:00,71.4,58.6,30.19,WSW,250,1.0,1.0,64,0.00,,,0.00,Wunderground v.1.15,2013-08-21 06:00:00,
2013-08-21 02:05:00,71.3,58.5,30.19,WSW,244,1.0,1.0,64,0.00,,,0.00,Wunderground v.1.15,2013-08-21 06:05:00,
2013-08-21 02:15:00,70.7,58.8,30.19,WSW,244,0.0,1.0,66,0.00,,,0.00,Wunderground v.1.15,2013-08-21 06:15:00,
2013-08-21 02:20:00,70.5,58.6,30.19,WSW,250,1.0,1.0,66,0.00,,,0.00,Wunderground v.1.15,2013-08-21 06:20:00,
2013-08-21 02:25:00,70.5,58.6,30.19,West,271,1.0,1.0,66,0.00,,,0.00,Wunderground v.1.15,2013-08-21 06:25:00,
2013-08-21 02:30:00,70.6,58.7,30.19,WSW,237,1.0,2.0,66,0.00,,,0.00,Wunderground v.1.15,2013-08-21 06:30:00,
2013-08-21 02:40:00,70.9,59.0,30.19,SW,232,2.0,2.0,66,0.00,,,0.00,Wunderground v.1.15,2013-08-21 06:40:00,
2013-08-21 02:45:00,70.6,59.1,30.19,WSW,244,1.0,2.0,67,0.00,,,0.00,Wunderground v.1.15,2013-08-21 06:45:00,
2013-08-21 02:50:00,70.4,59.3,30.19,WSW,241,1.0,1.0,68,0.00,,,0.00,Wunderground v.1.15,2013-08-21 06:50:00,
2013-08-21 02:55:00,70.2,59.1,30.19,SW,227,0.0,1.0,68,0.00,,,0.00,Wunderground v.1.15,2013-08-21 06:55:00,
2013-08-21 03:00:00,70.1,59.5,30.19,WSW,248,0.0,4.0,69,0.00,,,0.00,Wunderground v.1.15,2013-08-21 07:00:00,
2013-08-21 03:05:00,70.1,59.5,30.19,SW,221,1.0,4.0,69,0.00,,,0.00,Wunderground v.1.15,2013-08-21 07:05:00,
2013-08-21 03:10:00,70.3,59.6,30.19,WSW,243,2.0,2.0,69,0.00,,,0.00,Wunderground v.1.15,2013-08-21 07:10:00,
2013-08-21 03:15:00,70.2,59.6,30.19,West,270,1.0,2.0,69,0.00,,,0.00,Wunderground v.1.15,2013-08-21 07:15:00,
2013-08-21 03:20:00,69.9,59.7,30.19,WSW,254,1.0,2.0,70,0.00,,,0.00,Wunderground v.1.15,2013-08-21 07:20:00,
2013-08-21 03:25:00,69.6,59.8,30.19,WSW,254,1.0,2.0,71,0.00,,,0.00,Wunderground v.1.15,2013-08-21 07:25:00,
2013-08-21 03:30:00,69.4,59.6,30.19,SW,233,1.0,1.0,71,0.00,,,0.00,Wunderground v.1.15,2013-08-21 07:30:00,
2013-08-21 03:35:00,69.4,60.0,30.19,SW,236,1.0,1.0,72,0.00,,,0.00,Wunderground v.1.15,2013-08-21 07:35:00,
2013-08-21 03:40:00,68.1,58.7,30.19,NNE,22,1.0,1.0,72,0.00,,,0.00,Wunderground v.1.15,2013-08-21 07:40:00,
2013-08-21 03:45:00,66.9,58.3,30.19,NNE,22,1.0,1.0,74,0.00,,,0.00,Wunderground v.1.15,2013-08-21 07:45:00,
2013-08-21 03:50:00,66.1,57.9,30.19,NNE,22,0.0,0.0,75,0.00,,,0.00,Wunderground v.1.15,2013-08-21 07:50:00,
2013-08-21 03:55:00,65.8,58.4,30.19,NNE,22,0.0,0.0,77,0.00,,,0.00,Wunderground v.1.15,2013-08-21 07:55:00,
2013-08-21 04:00:00,65.6,58.2,30.19,NNE,22,0.0,0.0,77,0.00,,,0.00,Wunderground v.1.15,2013-08-21 08:00:00,
2013-08-21 04:05:00,65.5,58.1,30.20,NNE,22,0.0,0.0,77,0.00,,,0.00,Wunderground v.1.15,2013-08-21 08:05:00,
2013-08-21 04:10:00,65.4,58.4,30.20,NNE,22,0.0,0.0,78,0.00,,,0.00,Wunderground v.1.15,2013-08-21 08:10:00,
2013-08-21 04:20:00,65.3,58.3,30.20,NNE,22,0.0,0.0,78,0.00,,,0.00,Wunderground v.1.15,2013-08-21 08:20:00,
2013-08-21 04:25:00,65.2,58.2,30.20,NNE,22,0.0,0.0,78,0.00,,,0.00,Wunderground v.1.15,2013-08-21 08:25:00,
2013-08-21 04:30:00,65.2,58.2,30.20,NNE,22,0.0,0.0,78,0.00,,,0.00,Wunderground v.1.15,2013-08-21 08:30:00,
2013-08-21 04:35:00,65.3,58.3,30.20,NNE,22,0.0,0.0,78,0.00,,,0.00,Wunderground v.1.15,2013-08-21 08:35:00,
2013-08-21 04:45:00,65.6,58.6,30.20,NNE,22,0.0,0.0,78,0.00,,,0.00,Wunderground v.1.15,2013-08-21 08:45:00,
2013-08-21 04:50:00,65.7,59.0,30.20,NNE,22,0.0,0.0,79,0.00,,,0.00,Wunderground v.1.15,2013-08-21 08:50:00,
2013-08-21 04:55:00,65.9,59.2,30.20,NNE,17,0.0,2.0,79,0.00,,,0.00,Wunderground v.1.15,2013-08-21 08:55:00,
2013-08-21 05:00:00,66.1,59.4,30.19,SSW,211,1.0,2.0,79,0.00,,,0.00,Wunderground v.1.15,2013-08-21 09:00:00,
2013-08-21 05:10:00,66.4,59.7,30.20,SSW,211,1.0,1.0,79,0.00,,,0.00,Wunderground v.1.15,2013-08-21 09:10:00,
2013-08-21 05:20:00,66.9,59.8,30.20,WSW,238,1.0,2.0,78,0.00,,,0.00,Wunderground v.1.15,2013-08-21 09:20:00,
2013-08-21 05:25:00,67.4,59.9,30.20,WSW,240,2.0,5.0,77,0.00,,,0.00,Wunderground v.1.15,2013-08-21 09:25:00,
2013-08-21 05:30:00,67.7,59.9,30.20,SW,233,2.0,2.0,76,0.00,,,0.00,Wunderground v.1.15,2013-08-21 09:30:00,
2013-08-21 05:35:00,67.9,59.7,30.20,SW,229,2.0,2.0,75,0.00,,,0.00,Wunderground v.1.15,2013-08-21 09:35:00,
2013-08-21 05:40:00,67.9,59.7,30.21,SW,228,1.0,1.0,75,0.00,,,0.00,Wunderground v.1.15,2013-08-21 09:40:00,
2013-08-21 05:45:00,67.7,59.5,30.20,SW,219,0.0,1.0,75,0.00,,,0.00,Wunderground v.1.15,2013-08-21 09:45:00,
2013-08-21 05:50:00,68.1,59.9,30.21,SW,219,1.0,1.0,75,0.00,,,0.00,Wunderground v.1.15,2013-08-21 09:50:00,
2013-08-21 05:55:00,68.4,59.8,30.21,WSW,243,1.0,1.0,74,0.00,,,0.00,Wunderground v.1.15,2013-08-21 09:55:00,
2013-08-21 06:00:00,68.6,60.0,30.21,WSW,243,1.0,1.0,74,0.00,,,0.00,Wunderground v.1.15,2013-08-21 10:00:00,
2013-08-21 06:05:00,68.8,60.2,30.21,SW,226,1.0,1.0,74,0.00,,,0.00,Wunderground v.1.15,2013-08-21 10:05:00,
2013-08-21 06:10:00,68.9,59.9,30.21,SW,226,1.0,1.0,73,0.00,,,0.00,Wunderground v.1.15,2013-08-21 10:10:00,
2013-08-21 06:15:00,68.9,60.3,30.21,SW,226,0.0,1.0,74,0.00,,,0.00,Wunderground v.1.15,2013-08-21 10:15:00,
2013-08-21 06:25:00,68.8,60.6,30.21,SW,226,0.0,0.0,75,0.00,,,0.00,Wunderground v.1.15,2013-08-21 10:25:00,
2013-08-21 06:30:00,68.9,60.3,30.21,WSW,246,0.0,2.0,74,0.00,,,0.00,Wunderground v.1.15,2013-08-21 10:30:00,
2013-08-21 06:35:00,69.3,60.3,30.22,WSW,246,1.0,2.0,73,0.00,,,0.00,Wunderground v.1.15,2013-08-21 10:35:00,
2013-08-21 06:40:00,69.4,60.0,30.22,WSW,246,1.0,1.0,72,0.00,,,0.00,Wunderground v.1.15,2013-08-21 10:40:00,
2013-08-21 06:45:00,69.5,60.1,30.22,WSW,246,0.0,1.0,72,0.00,,,0.00,Wunderground v.1.15,2013-08-21 10:45:00,
2013-08-21 06:50:00,69.5,60.5,30.22,WSW,246,0.0,0.0,73,0.00,,,0.00,Wunderground v.1.15,2013-08-21 10:50:00,
2013-08-21 07:00:00,69.4,60.4,30.22,WSW,246,0.0,0.0,73,0.00,,,0.00,Wunderground v.1.15,2013-08-21 11:00:00,
2013-08-21 07:10:00,69.3,61.0,30.22,WSW,246,0.0,0.0,75,0.00,,,0.00,Wunderground v.1.15,2013-08-21 11:10:00,
2013-08-21 07:15:00,69.4,60.8,30.22,WSW,246,0.0,1.0,74,0.00,,,0.00,Wunderground v.1.15,2013-08-21 11:15:00,
2013-08-21 07:20:00,69.6,60.9,30.22,WSW,246,0.0,0.0,74,0.00,,,0.00,Wunderground v.1.15,2013-08-21 11:20:00,
2013-08-21 07:25:00,69.9,61.2,30.22,WSW,246,0.0,0.0,74,0.00,,,0.00,Wunderground v.1.15,2013-08-21 11:25:00,
2013-08-21 07:30:00,70.5,61.8,30.22,WSW,246,0.0,0.0,74,0.00,,,0.00,Wunderground v.1.15,2013-08-21 11:30:00,
2013-08-21 07:35:00,71.1,62.4,30.22,WSW,246,0.0,0.0,74,0.00,,,0.00,Wunderground v.1.15,2013-08-21 11:35:00,
2013-08-21 07:40:00,71.7,62.2,30.22,WSW,246,0.0,0.0,72,0.00,,,0.00,Wunderground v.1.15,2013-08-21 11:40:00,
2013-08-21 07:45:00,72.0,62.1,30.22,WSW,246,0.0,0.0,71,0.00,,,0.00,Wunderground v.1.15,2013-08-21 11:45:00,
2013-08-21 07:50:00,71.9,62.0,30.22,WSW,246,0.0,0.0,71,0.00,,,0.00,Wunderground v.1.15,2013-08-21 11:50:00,
2013-08-21 07:55:00,71.8,62.7,30.22,WSW,246,0.0,0.0,73,0.00,,,0.00,Wunderground v.1.15,2013-08-21 11:55:00,
2013-08-21 08:00:00,72.7,63.5,30.23,WSW,246,0.0,0.0,73,0.00,,,0.00,Wunderground v.1.15,2013-08-21 12:00:00,
2013-08-21 08:05:00,73.0,62.2,30.23,WSW,246,0.0,0.0,69,0.00,,,0.00,Wunderground v.1.15,2013-08-21 12:05:00,
2013-08-21 08:15:00,72.7,62.3,30.23,WSW,246,0.0,0.0,70,0.00,,,0.00,Wunderground v.1.15,2013-08-21 12:15:00,
2013-08-21 08:20:00,72.5,60.9,30.22,WSW,246,0.0,0.0,67,0.00,,,0.00,Wunderground v.1.15,2013-08-21 12:20:00,
2013-08-21 08:25:00,72.5,62.6,30.23,WSW,246,0.0,0.0,71,0.00,,,0.00,Wunderground v.1.15,2013-08-21 12:25:00,
2013-08-21 08:30:00,72.8,62.0,30.22,WSW,246,0.0,0.0,69,0.00,,,0.00,Wunderground v.1.15,2013-08-21 12:30:00,
2013-08-21 08:35:00,73.5,62.3,30.22,WSW,246,0.0,0.0,68,0.00,,,0.00,Wunderground v.1.15,2013-08-21 12:35:00,
2013-08-21 08:40:00,73.8,63.0,30.22,WSW,246,0.0,1.0,69,0.00,,,0.00,Wunderground v.1.15,2013-08-21 12:40:00,
2013-08-21 08:45:00,73.8,63.0,30.22,WSW,246,0.0,1.0,69,0.00,,,0.00,Wunderground v.1.15,2013-08-21 12:45:00,
2013-08-21 08:50:00,74.4,63.6,30.22,WSW,246,0.0,0.0,69,0.00,,,0.00,Wunderground v.1.15,2013-08-21 12:50:00,
2013-08-21 08:55:00,75.0,64.5,30.22,WSW,246,0.0,0.0,70,0.00,,,0.00,Wunderground v.1.15,2013-08-21 12:55:00,
2013-08-21 09:00:00,75.5,63.3,30.22,WSW,246,0.0,0.0,66,0.00,,,0.00,Wunderground v.1.15,2013-08-21 13:00:00,
2013-08-21 09:05:00,75.1,62.5,30.22,WSW,246,0.0,0.0,65,0.00,,,0.00,Wunderground v.1.15,2013-08-21 13:05:00,
2013-08-21 09:10:00,74.9,62.8,30.22,WSW,246,0.0,2.0,66,0.00,,,0.00,Wunderground v.1.15,2013-08-21 13:10:00,
2013-08-21 09:15:00,74.5,63.2,30.22,WSW,246,1.0,2.0,68,0.00,,,0.00,Wunderground v.1.15,2013-08-21 13:15:00,
2013-08-21 09:20:00,74.3,63.9,30.23,WSW,248,1.0,1.0,70,0.00,,,0.00,Wunderground v.1.15,2013-08-21 13:20:00,
2013-08-21 09:25:00,74.5,63.7,30.22,WSW,249,1.0,1.0,69,0.00,,,0.00,Wunderground v.1.15,2013-08-21 13:25:00,
2013-08-21 09:30:00,74.6,64.6,30.22,West,269,1.0,1.0,71,0.00,,,0.00,Wunderground v.1.15,2013-08-21 13:30:00,
2013-08-21 09:35:00,74.6,64.2,30.22,WNW,301,1.0,1.0,70,0.00,,,0.00,Wunderground v.1.15,2013-08-21 13:35:00,
2013-08-21 09:40:00,74.8,64.4,30.22,WNW,301,1.0,1.0,70,0.00,,,0.00,Wunderground v.1.15,2013-08-21 13:40:00,
2013-08-21 09:45:00,75.0,63.7,30.22,WSW,238,1.0,2.0,68,0.00,,,0.00,Wunderground v.1.15,2013-08-21 13:45:00,
2013-08-21 09:55:00,75.5,62.9,30.22,NW,309,2.0,3.0,65,0.00,,,0.00,Wunderground v.1.15,2013-08-21 13:55:00,
2013-08-21 10:00:00,76.0,63.4,30.22,WSW,257,1.0,1.0,65,0.00,,,0.00,Wunderground v.1.15,2013-08-21 14:00:00,
2013-08-21 10:05:00,76.1,62.6,30.22,WSW,240,1.0,3.0,63,0.00,,,0.00,Wunderground v.1.15,2013-08-21 14:05:00,
2013-08-21 10:10:00,76.3,61.9,30.22,WNW,301,2.0,4.0,61,0.00,,,0.00,Wunderground v.1.15,2013-08-21 14:10:00,
2013-08-21 10:15:00,76.5,62.5,30.22,WSW,252,3.0,4.0,62,0.00,,,0.00,Wunderground v.1.15,2013-08-21 14:15:00,
2013-08-21 10:20:00,77.2,63.6,30.22,WSW,251,2.0,2.0,63,0.00,,,0.00,Wunderground v.1.15,2013-08-21 14:20:00,
2013-08-21 10:25:00,77.5,63.0,30.21,WNW,284,1.0,4.0,61,0.00,,,0.00,Wunderground v.1.15,2013-08-21 14:25:00,
2013-08-21 10:30:00,77.5,62.0,30.21,West,275,2.0,3.0,59,0.00,,,0.00,Wunderground v.1.15,2013-08-21 14:30:00,
2013-08-21 10:35:00,77.7,63.2,30.21,West,270,2.0,3.0,61,0.00,,,0.00,Wunderground v.1.15,2013-08-21 14:35:00,
2013-08-21 10:40:00,77.8,62.3,30.22,SSW,205,2.0,3.0,59,0.00,,,0.00,Wunderground v.1.15,2013-08-21 14:40:00,
2013-08-21 10:45:00,77.7,62.7,30.21,WSW,248,3.0,3.0,60,0.00,,,0.00,Wunderground v.1.15,2013-08-21 14:45:00,
2013-08-21 10:50:00,77.7,62.2,30.22,WSW,252,3.0,3.0,59,0.00,,,0.00,Wunderground v.1.15,2013-08-21 14:50:00,
2013-08-21 10:55:00,77.9,62.9,30.22,SSW,207,2.0,3.0,60,0.00,,,0.00,Wunderground v.1.15,2013-08-21 14:55:00,
2013-08-21 11:00:00,78.0,63.5,30.21,WSW,257,2.0,2.0,61,0.00,,,0.00,Wunderground v.1.15,2013-08-21 15:00:00,
2013-08-21 11:05:00,78.5,63.5,30.21,SW,234,2.0,2.0,60,0.00,,,0.00,Wunderground v.1.15,2013-08-21 15:05:00,
2013-08-21 11:10:00,78.6,62.6,30.21,SW,232,2.0,3.0,58,0.00,,,0.00,Wunderground v.1.15,2013-08-21 15:10:00,
2013-08-21 11:15:00,78.4,62.9,30.21,WSW,244,3.0,3.0,59,0.00,,,0.00,Wunderground v.1.15,2013-08-21 15:15:00,
2013-08-21 11:20:00,78.3,64.2,30.21,South,179,3.0,3.0,62,0.00,,,0.00,Wunderground v.1.15,2013-08-21 15:20:00,
2013-08-21 11:25:00,78.7,64.1,30.21,WSW,252,2.0,3.0,61,0.00,,,0.00,Wunderground v.1.15,2013-08-21 15:25:00,
2013-08-21 11:30:00,78.9,64.3,30.21,WSW,250,2.0,2.0,61,0.00,,,0.00,Wunderground v.1.15,2013-08-21 15:30:00,
2013-08-21 11:35:00,78.8,64.7,30.21,WSW,253,2.0,2.0,62,0.00,,,0.00,Wunderground v.1.15,2013-08-21 15:35:00,
2013-08-21 11:40:00,79.0,63.9,30.21,WSW,253,2.0,5.0,60,0.00,,,0.00,Wunderground v.1.15,2013-08-21 15:40:00,
2013-08-21 11:45:00,78.7,64.1,30.20,SSW,202,3.0,5.0,61,0.00,,,0.00,Wunderground v.1.15,2013-08-21 15:45:00,
2013-08-21 11:50:00,78.8,65.1,30.20,West,271,4.0,4.0,63,0.00,,,0.00,Wunderground v.1.15,2013-08-21 15:50:00,
2013-08-21 11:55:00,79.0,65.8,30.20,WSW,251,3.0,4.0,64,0.00,,,0.00,Wunderground v.1.15,2013-08-21 15:55:00,
2013-08-21 12:00:00,79.6,65.0,30.20,West,271,3.0,3.0,61,0.00,,,0.00,Wunderground v.1.15,2013-08-21 16:00:00,
2013-08-21 12:10:00,79.7,63.6,30.19,SW,235,3.0,4.0,58,0.00,,,0.00,Wunderground v.1.15,2013-08-21 16:10:00,
2013-08-21 12:20:00,79.4,65.2,30.19,WNW,289,5.0,5.0,62,0.00,,,0.00,Wunderground v.1.15,2013-08-21 16:20:00,
2013-08-21 12:25:00,79.4,64.3,30.19,WSW,246,5.0,5.0,60,0.00,,,0.00,Wunderground v.1.15,2013-08-21 16:25:00,
2013-08-21 12:35:00,80.0,65.3,30.19,SSW,194,4.0,5.0,61,0.00,,,0.00,Wunderground v.1.15,2013-08-21 16:35:00,
2013-08-21 12:40:00,80.4,65.7,30.19,SSW,212,3.0,3.0,61,0.00,,,0.00,Wunderground v.1.15,2013-08-21 16:40:00,
2013-08-21 12:45:00,81.1,64.9,30.19,WSW,250,3.0,3.0,58,0.00,,,0.00,Wunderground v.1.15,2013-08-21 16:45:00,
2013-08-21 12:50:00,81.0,65.3,30.19,SW,221,3.0,3.0,59,0.00,,,0.00,Wunderground v.1.15,2013-08-21 16:50:00,
2013-08-21 12:55:00,80.9,65.2,30.18,WNW,300,4.0,4.0,59,0.00,,,0.00,Wunderground v.1.15,2013-08-21 16:55:00,
2013-08-21 13:00:00,80.9,65.7,30.18,SSW,194,3.0,5.0,60,0.00,,,0.00,Wunderground v.1.15,2013-08-21 17:00:00,
2013-08-21 13:05:00,81.1,65.4,30.18,SW,229,3.0,5.0,59,0.00,,,0.00,Wunderground v.1.15,2013-08-21 17:05:00,
2013-08-21 13:10:00,81.4,64.7,30.18,WSW,243,3.0,3.0,57,0.00,,,0.00,Wunderground v.1.15,2013-08-21 17:10:00,
2013-08-21 13:15:00,81.8,65.1,30.18,SW,230,3.0,3.0,57,0.00,,,0.00,Wunderground v.1.15,2013-08-21 17:15:00,
2013-08-21 13:20:00,81.6,64.4,30.18,SW,234,3.0,3.0,56,0.00,,,0.00,Wunderground v.1.15,2013-08-21 17:20:00,
2013-08-21 13:25:00,81.7,65.0,30.18,SSW,209,4.0,4.0,57,0.00,,,0.00,Wunderground v.1.15,2013-08-21 17:25:00,
2013-08-21 13:30:00,82.6,64.3,30.18,SSE,164,2.0,2.0,54,0.00,,,0.00,Wunderground v.1.15,2013-08-21 17:30:00,
2013-08-21 13:35:00,82.3,62.4,30.18,West,272,3.0,3.0,51,0.00,,,0.00,Wunderground v.1.15,2013-08-21 17:35:00,
2013-08-21 13:40:00,82.4,64.1,30.17,SSE,157,3.0,3.0,54,0.00,,,0.00,Wunderground v.1.15,2013-08-21 17:40:00,
2013-08-21 13:45:00,82.1,62.2,30.17,SW,236,3.0,3.0,51,0.00,,,0.00,Wunderground v.1.15,2013-08-21 17:45:00,
2013-08-21 13:50:00,82.4,64.1,30.17,SSW,212,3.0,7.0,54,0.00,,,0.00,Wunderground v.1.15,2013-08-21 17:50:00,
2013-08-21 14:00:00,82.0,62.6,30.17,SSW,209,4.0,5.0,52,0.00,,,0.00,Wunderground v.1.15,2013-08-21 18:00:00,
2013-08-21 14:05:00,81.8,63.0,30.17,SW,214,4.0,5.0,53,0.00,,,0.00,Wunderground v.1.15,2013-08-21 18:05:00,
2013-08-21 14:10:00,82.3,63.5,30.16,SSW,213,3.0,3.0,53,0.00,,,0.00,Wunderground v.1.15,2013-08-21 18:10:00,
2013-08-21 14:15:00,82.7,62.7,30.16,SW,232,3.0,3.0,51,0.00,,,0.00,Wunderground v.1.15,2013-08-21 18:15:00,
2013-08-21 14:25:00,82.3,64.0,30.16,West,264,4.0,7.0,54,0.00,,,0.00,Wunderground v.1.15,2013-08-21 18:25:00,
2013-08-21 14:30:00,82.7,63.8,30.16,West,259,4.0,4.0,53,0.00,,,0.00,Wunderground v.1.15,2013-08-21 18:30:00,
2013-08-21 14:35:00,82.7,62.7,30.16,SW,214,4.0,5.0,51,0.00,,,0.00,Wunderground v.1.15,2013-08-21 18:35:00,
2013-08-21 14:40:00,82.4,63.5,30.16,SW,220,4.0,12.0,53,0.00,,,0.00,Wunderground v.1.15,2013-08-21 18:40:00,
2013-08-21 14:45:00,82.1,63.3,30.16,West,273,5.0,12.0,53,0.00,,,0.00,Wunderground v.1.15,2013-08-21 18:45:00,
2013-08-21 14:50:00,82.2,63.4,30.15,SW,234,6.0,6.0,53,0.00,,,0.00,Wunderground v.1.15,2013-08-21 18:50:00,
2013-08-21 14:55:00,82.4,63.0,30.16,SSW,207,5.0,6.0,52,0.00,,,0.00,Wunderground v.1.15,2013-08-21 18:55:00,
2013-08-21 15:00:00,82.7,63.3,30.16,SW,235,4.0,7.0,52,0.00,,,0.00,Wunderground v.1.15,2013-08-21 19:00:00,
2013-08-21 15:05:00,82.7,62.2,30.16,WSW,248,5.0,7.0,50,0.00,,,0.00,Wunderground v.1.15,2013-08-21 19:05:00,
2013-08-21 15:10:00,82.6,63.7,30.15,WSW,253,5.0,5.0,53,0.00,,,0.00,Wunderground v.1.15,2013-08-21 19:10:00,
2013-08-21 15:20:00,82.5,63.1,30.15,SSW,211,6.0,6.0,52,0.00,,,0.00,Wunderground v.1.15,2013-08-21 19:20:00,
2013-08-21 15:25:00,82.5,64.2,30.15,SW,219,5.0,6.0,54,0.00,,,0.00,Wunderground v.1.15,2013-08-21 19:25:00,
2013-08-21 15:30:00,82.9,64.0,30.14,WNW,291,5.0,14.0,53,0.00,,,0.00,Wunderground v.1.15,2013-08-21 19:30:00,
2013-08-21 15:35:00,82.6,64.8,30.14,WSW,251,5.0,14.0,55,0.00,,,0.00,Wunderground v.1.15,2013-08-21 19:35:00,
2013-08-21 15:40:00,82.5,62.5,30.14,West,271,6.0,6.0,51,0.00,,,0.00,Wunderground v.1.15,2013-08-21 19:40:00,
2013-08-21 15:45:00,83.0,64.1,30.14,West,278,5.0,6.0,53,0.00,,,0.00,Wunderground v.1.15,2013-08-21 19:45:00,
2013-08-21 15:50:00,83.0,63.0,30.14,SW,234,5.0,9.0,51,0.00,,,0.00,Wunderground v.1.15,2013-08-21 19:50:00,
2013-08-21 15:55:00,82.6,63.7,30.14,WSW,238,6.0,9.0,53,0.00,,,0.00,Wunderground v.1.15,2013-08-21 19:55:00,
2013-08-21 16:00:00,82.6,62.6,30.13,West,275,6.0,10.0,51,0.00,,,0.00,Wunderground v.1.15,2013-08-21 20:00:00,
2013-08-21 16:05:00,82.4,62.5,30.13,WNW,284,6.0,10.0,51,0.00,,,0.00,Wunderground v.1.15,2013-08-21 20:05:00,
2013-08-21 16:15:00,82.5,63.6,30.13,SW,232,6.0,6.0,53,0.00,,,0.00,Wunderground v.1.15,2013-08-21 20:15:00,
2013-08-21 16:20:00,82.8,63.9,30.13,WSW,252,5.0,7.0,53,0.00,,,0.00,Wunderground v.1.15,2013-08-21 20:20:00,
2013-08-21 16:30:00,82.3,62.9,30.13,West,266,7.0,7.0,52,0.00,,,0.00,Wunderground v.1.15,2013-08-21 20:30:00,
2013-08-21 16:40:00,83.1,64.2,30.13,WSW,251,3.0,6.0,53,0.00,,,0.00,Wunderground v.1.15,2013-08-21 20:40:00,
2013-08-21 16:45:00,83.1,63.1,30.12,SSW,199,3.0,6.0,51,0.00,,,0.00,Wunderground v.1.15,2013-08-21 20:45:00,
2013-08-21 16:50:00,82.8,63.9,30.12,WSW,246,4.0,4.0,53,0.00,,,0.00,Wunderground v.1.15,2013-08-21 20:50:00,
2013-08-21 16:55:00,82.8,63.4,30.12,West,259,4.0,4.0,52,0.00,,,0.00,Wunderground v.1.15,2013-08-21 20:55:00,
2013-08-21 17:00:00,82.4,63.0,30.13,WSW,246,5.0,5.0,52,0.00,,,0.00,Wunderground v.1.15,2013-08-21 21:00:00,
2013-08-21 17:05:00,82.1,63.8,30.12,West,281,6.0,6.0,54,0.00,,,0.00,Wunderground v.1.15,2013-08-21 21:05:00,
2013-08-21 17:15:00,82.5,63.6,30.12,WSW,248,3.0,7.0,53,0.00,,,0.00,Wunderground v.1.15,2013-08-21 21:15:00,
2013-08-21 17:25:00,83.0,62.4,30.12,SSW,209,3.0,4.0,50,0.00,,,0.00,Wunderground v.1.15,2013-08-21 21:25:00,
2013-08-21 17:35:00,82.4,61.9,30.12,SSW,211,4.0,7.0,50,0.00,,,0.00,Wunderground v.1.15,2013-08-21 21:35:00,
2013-08-21 17:45:00,81.9,60.9,30.12,South,175,4.0,4.0,49,0.00,,,0.00,Wunderground v.1.15,2013-08-21 21:45:00,
2013-08-21 17:55:00,81.4,61.5,30.12,West,273,4.0,5.0,51,0.00,,,0.00,Wunderground v.1.15,2013-08-21 21:55:00,
2013-08-21 18:00:00,81.0,61.2,30.12,WSW,243,4.0,4.0,51,0.00,,,0.00,Wunderground v.1.15,2013-08-21 22:00:00,
2013-08-21 18:05:00,80.7,60.3,30.11,WSW,248,5.0,7.0,50,0.00,,,0.00,Wunderground v.1.15,2013-08-21 22:05:00,
2013-08-21 18:10:00,80.6,61.3,30.11,SW,224,4.0,4.0,52,0.00,,,0.00,Wunderground v.1.15,2013-08-21 22:10:00,
2013-08-21 18:15:00,80.4,61.7,30.11,West,269,4.0,5.0,53,0.00,,,0.00,Wunderground v.1.15,2013-08-21 22:15:00,
2013-08-21 18:20:00,80.0,61.9,30.11,WSW,245,4.0,4.0,54,0.00,,,0.00,Wunderground v.1.15,2013-08-21 22:20:00,
2013-08-21 18:30:00,79.5,61.4,30.11,West,267,5.0,5.0,54,0.00,,,0.00,Wunderground v.1.15,2013-08-21 22:30:00,
2013-08-21 18:35:00,79.3,61.2,30.11,West,264,5.0,6.0,54,0.00,,,0.00,Wunderground v.1.15,2013-08-21 22:35:00,
2013-08-21 18:40:00,79.1,61.5,30.10,WSW,257,5.0,5.0,55,0.00,,,0.00,Wunderground v.1.15,2013-08-21 22:40:00,
2013-08-21 18:45:00,78.8,61.3,30.10,WSW,241,4.0,5.0,55,0.00,,,0.00,Wunderground v.1.15,2013-08-21 22:45:00,
2013-08-21 18:50:00,78.7,61.7,30.11,SW,228,4.0,4.0,56,0.00,,,0.00,Wunderground v.1.15,2013-08-21 22:50:00,
2013-08-21 18:55:00,78.4,61.4,30.11,West,269,4.0,6.0,56,0.00,,,0.00,Wunderground v.1.15,2013-08-21 22:55:00,
2013-08-21 19:00:00,78.2,61.7,30.10,SSW,212,4.0,5.0,57,0.00,,,0.00,Wunderground v.1.15,2013-08-21 23:00:00,
2013-08-21 19:10:00,77.9,61.9,30.10,South,172,4.0,4.0,58,0.00,,,0.00,Wunderground v.1.15,2013-08-21 23:10:00,
2013-08-21 19:15:00,77.8,61.8,30.10,WSW,257,5.0,6.0,58,0.00,,,0.00,Wunderground v.1.15,2013-08-21 23:15:00,
2013-08-21 19:20:00,77.7,62.2,30.10,WSW,246,5.0,5.0,59,0.00,,,0.00,Wunderground v.1.15,2013-08-21 23:20:00,
2013-08-21 19:25:00,77.5,62.0,30.10,West,269,5.0,5.0,59,0.00,,,0.00,Wunderground v.1.15,2013-08-21 23:25:00,
2013-08-21 19:30:00,77.3,61.9,30.10,WSW,250,5.0,5.0,59,0.00,,,0.00,Wunderground v.1.15,2013-08-21 23:30:00,
2013-08-21 19:35:00,77.3,61.9,30.10,WSW,244,5.0,9.0,59,0.00,,,0.00,Wunderground v.1.15,2013-08-21 23:35:00,
2013-08-21 19:40:00,77.0,61.6,30.10,WSW,255,5.0,5.0,59,0.00,,,0.00,Wunderground v.1.15,2013-08-21 23:40:00,
2013-08-21 19:45:00,76.7,61.3,30.10,SW,215,4.0,5.0,59,0.00,,,0.00,Wunderground v.1.15,2013-08-21 23:45:00,
2013-08-21 19:50:00,76.6,61.2,30.10,SSW,213,5.0,5.0,59,0.00,,,0.00,Wunderground v.1.15,2013-08-21 23:50:00,
2013-08-21 20:00:00,76.5,61.1,30.10,WSW,249,5.0,9.0,59,0.00,,,0.00,Wunderground v.1.15,2013-08-22 00:00:00,
2013-08-21 20:05:00,76.5,60.6,30.10,West,262,5.0,9.0,58,0.00,,,0.00,Wunderground v.1.15,2013-08-22 00:05:00,
2013-08-21 20:10:00,76.4,61.0,30.10,SW,219,5.0,8.0,59,0.00,,,0.00,Wunderground v.1.15,2013-08-22 00:10:00,
2013-08-21 20:20:00,76.2,60.8,30.11,SW,226,5.0,5.0,59,0.00,,,0.00,Wunderground v.1.15,2013-08-22 00:20:00,
2013-08-21 20:25:00,76.1,60.7,30.11,WSW,246,5.0,5.0,59,0.00,,,0.00,Wunderground v.1.15,2013-08-22 00:25:00,
2013-08-21 20:30:00,76.0,60.2,30.10,West,268,5.0,5.0,58,0.00,,,0.00,Wunderground v.1.15,2013-08-22 00:30:00,
2013-08-21 20:40:00,75.9,60.1,30.10,WSW,250,5.0,5.0,58,0.00,,,0.00,Wunderground v.1.15,2013-08-22 00:40:00,
2013-08-21 20:45:00,75.9,60.1,30.10,SSW,207,5.0,5.0,58,0.00,,,0.00,Wunderground v.1.15,2013-08-22 00:45:00,
2013-08-21 20:50:00,75.8,60.0,30.10,WSW,244,4.0,4.0,58,0.00,,,0.00,Wunderground v.1.15,2013-08-22 00:50:00,
2013-08-21 20:55:00,75.8,60.0,30.10,SW,234,4.0,4.0,58,0.00,,,0.00,Wunderground v.1.15,2013-08-22 00:55:00,
2013-08-21 21:00:00,75.8,60.0,30.10,WSW,238,4.0,4.0,58,0.00,,,0.00,Wunderground v.1.15,2013-08-22 01:00:00,
2013-08-21 21:05:00,75.7,59.9,30.10,WSW,253,4.0,4.0,58,0.00,,,0.00,Wunderground v.1.15,2013-08-22 01:05:00,
2013-08-21 21:10:00,75.6,59.8,30.10,SW,234,4.0,4.0,58,0.00,,,0.00,Wunderground v.1.15,2013-08-22 01:10:00,
2013-08-21 21:15:00,75.5,59.7,30.10,SW,222,4.0,4.0,58,0.00,,,0.00,Wunderground v.1.15,2013-08-22 01:15:00,
2013-08-21 21:20:00,75.5,59.7,30.09,SW,235,4.0,6.0,58,0.00,,,0.00,Wunderground v.1.15,2013-08-22 01:20:00,
2013-08-21 21:25:00,75.5,59.7,30.09,West,275,4.0,6.0,58,0.00,,,0.00,Wunderground v.1.15,2013-08-22 01:25:00,
2013-08-21 21:30:00,75.3,59.5,30.09,SSW,208,4.0,5.0,58,0.00,,,0.00,Wunderground v.1.15,2013-08-22 01:30:00,
2013-08-21 21:35:00,75.2,59.9,30.10,WSW,243,4.0,5.0,59,0.00,,,0.00,Wunderground v.1.15,2013-08-22 01:35:00,
2013-08-21 21:40:00,75.1,59.8,30.10,South,186,5.0,5.0,59,0.00,,,0.00,Wunderground v.1.15,2013-08-22 01:40:00,
2013-08-21 21:45:00,74.9,60.1,30.10,SW,229,5.0,5.0,60,0.00,,,0.00,Wunderground v.1.15,2013-08-22 01:45:00,
2013-08-21 21:50:00,74.7,59.9,30.10,SW,226,4.0,4.0,60,0.00,,,0.00,Wunderground v.1.15,2013-08-22 01:50:00,
2013-08-21 21:55:00,74.6,59.8,30.09,West,267,5.0,5.0,60,0.00,,,0.00,Wunderground v.1.15,2013-08-22 01:55:00,
2013-08-21 22:00:00,74.7,59.9,30.09,West,271,5.0,7.0,60,0.00,,,0.00,Wunderground v.1.15,2013-08-22 02:00:00,
2013-08-21 22:05:00,74.6,59.8,30.09,West,260,5.0,7.0,60,0.00,,,0.00,Wunderground v.1.15,2013-08-22 02:05:00,
2013-08-21 22:10:00,74.6,60.3,30.09,West,267,5.0,5.0,61,0.00,,,0.00,Wunderground v.1.15,2013-08-22 02:10:00,
2013-08-21 22:15:00,74.4,60.1,30.09,West,259,4.0,5.0,61,0.00,,,0.00,Wunderground v.1.15,2013-08-22 02:15:00,
2013-08-21 22:20:00,74.5,60.2,30.10,SW,215,5.0,5.0,61,0.00,,,0.00,Wunderground v.1.15,2013-08-22 02:20:00,
2013-08-21 22:25:00,74.7,60.4,30.10,SW,236,5.0,5.0,61,0.00,,,0.00,Wunderground v.1.15,2013-08-22 02:25:00,
2013-08-21 22:30:00,74.6,60.3,30.10,WSW,243,4.0,4.0,61,0.00,,,0.00,Wunderground v.1.15,2013-08-22 02:30:00,
2013-08-21 22:35:00,74.3,60.0,30.10,SW,236,4.0,6.0,61,0.00,,,0.00,Wunderground v.1.15,2013-08-22 02:35:00,
2013-08-21 22:40:00,74.4,60.1,30.10,SW,234,5.0,10.0,61,0.00,,,0.00,Wunderground v.1.15,2013-08-22 02:40:00,
2013-08-21 22:45:00,74.5,60.2,30.10,SW,233,6.0,10.0,61,0.00,,,0.00,Wunderground v.1.15,2013-08-22 02:45:00,
2013-08-21 22:50:00,74.3,60.4,30.10,WSW,254,5.0,6.0,62,0.00,,,0.00,Wunderground v.1.15,2013-08-22 02:50:00,
2013-08-21 22:55:00,73.8,60.4,30.10,SW,219,5.0,6.0,63,0.00,,,0.00,Wunderground v.1.15,2013-08-22 02:55:00,
2013-08-21 23:00:00,73.7,60.3,30.10,SW,228,5.0,5.0,63,0.00,,,0.00,Wunderground v.1.15,2013-08-22 03:00:00,
2013-08-21 23:10:00,73.1,60.6,30.09,SW,223,5.0,5.0,65,0.00,,,0.00,Wunderground v.1.15,2013-08-22 03:10:00,
2013-08-21 23:15:00,73.1,60.6,30.09,WSW,249,5.0,5.0,65,0.00,,,0.00,Wunderground v.1.15,2013-08-22 03:15:00,
2013-08-21 23:20:00,73.3,60.8,30.09,WSW,246,6.0,7.0,65,0.00,,,0.00,Wunderground v.1.15,2013-08-22 03:20:00,
2013-08-21 23:25:00,73.5,61.0,30.09,SW,217,7.0,7.0,65,0.00,,,0.00,Wunderground v.1.15,2013-08-22 03:25:00,
2013-08-21 23:30:00,73.7,61.2,30.09,SW,228,8.0,8.0,65,0.00,,,0.00,Wunderground v.1.15,2013-08-22 03:30:00,
2013-08-21 23:35:00,73.8,61.3,30.09,SW,219,7.0,8.0,65,0.00,,,0.00,Wunderground v.1.15,2013-08-22 03:35:00,
2013-08-21 23:40:00,73.6,61.1,30.09,WSW,248,7.0,13.0,65,0.00,,,0.00,Wunderground v.1.15,2013-08-22 03:40:00,
2013-08-21 23:50:00,73.5,61.4,30.09,WSW,250,5.0,5.0,66,0.00,,,0.00,Wunderground v.1.15,2013-08-22 03:50:00,
2013-08-21 23:55:00,73.4,61.3,30.09,WSW,250,5.0,5.0,66,0.00,,,0.00,Wunderground v.1.15,2013-08-22 03:55:00,